K7ZQU-7 Weather Reports


Display with metric or nautical units.
time (UTC)temp
F
wind
direction
speed
MPH
gust
MPH
rain 1hr
in
rain 24hr
in
rain mn
in
humidity
%
barometer
mb
20260831191058 64 176 4.0 4.0 0.00 0.00 0.00 30 1013.1
20260831190557 64 129 2.0 4.0 0.00 0.00 0.00 31 1013.3
20260831185100 63 110 5.0 8.0 0.00 0.00 0.00 30 1013.3
20260831184601 63 125 5.0 5.0 0.00 0.00 0.00 30 1013.5
20260831184059 63 113 4.0 2.0 0.00 0.00 0.00 31 1013.3
20260831183600 63 23 3.0 3.0 0.00 0.00 0.00 31 1013.3
20260831183101 63 205 2.0 6.0 0.00 0.00 0.00 33 1013.3
20260831182629 63 205 3.0 4.0 0.00 0.00 0.00 32 1013.2
20260831182103 62 90 2.0 1.0 0.00 0.00 0.00 33 1013.3
20260831181602 62 37 3.0 2.0 0.00 0.00 0.00 33 1013.3
20260831181103 61 155 2.0 3.0 0.00 0.00 0.00 33 1013.3
20260831180604 61 354 4.0 1.0 0.00 0.00 0.00 34 1013.4
20260831180105 61 165 4.0 4.0 0.00 0.00 0.00 34 1013.3
20260831175606 61 73 5.0 1.0 0.00 0.00 0.00 34 1013.4
20260831175104 61 134 3.0 4.0 0.00 0.00 0.00 34 1013.3
20260831174605 60 319 3.0 2.0 0.00 0.00 0.00 36 1013.5
20260831173607 60 14 3.0 2.0 0.00 0.00 0.00 36 1013.4
20260831173108 59 307 4.0 2.0 0.00 0.00 0.00 37 1013.3
20260831172607 59 221 3.0 2.0 0.00 0.00 0.00 37 1013.5
20260831172108 59 271 5.0 2.0 0.00 0.00 0.00 37 1013.2
20260831171609 58 89 1.0 5.0 0.00 0.00 0.00 40 1013.4
20260831171110 58 120 6.0 3.0 0.00 0.00 0.00 40 1013.2
20260831170611 58 211 4.0 5.0 0.00 0.00 0.00 40 1013.1
20260831170109 58 232 4.0 4.0 0.00 0.00 0.00 40 1013.1
20260831165610 58 214 2.0 6.0 0.00 0.00 0.00 40 1013.2
20260831165111 58 167 1.0 5.0 0.00 0.00 0.00 41 1013.1
20260831164612 58 129 1.0 1.0 0.00 0.00 0.00 41 1013.2
20260831164113 58 115 4.0 5.0 0.00 0.00 0.00 41 1013.1
20260831163611 57 224 3.0 3.0 0.00 0.00 0.00 43 1013.1
20260831163112 57 162 1.0 4.0 0.00 0.00 0.00 43 1013.0
20260831162613 56 235 2.0 1.0 0.00 0.00 0.00 44 1013.1
20260831162114 56 149 3.0 2.0 0.00 0.00 0.00 43 1013.1
20260831161615 56 115 5.0 5.0 0.00 0.00 0.00 44 1013.3
20260831161113 56 89 4.0 4.0 0.00 0.00 0.00 43 1013.2
20260831160614 55 97 4.0 2.0 0.00 0.00 0.00 43 1013.2
20260831160115 55 172 2.0 3.0 0.00 0.00 0.00 45 1013.2
20260831155616 55 181 3.0 3.0 0.00 0.00 0.00 45 1013.3
20260831155117 55 195 2.0 2.0 0.00 0.00 0.00 46 1013.1
20260831154615 55 139 3.0 5.0 0.00 0.00 0.00 45 1013.1
20260831154116 54 93 4.0 3.0 0.00 0.00 0.00 46 1013.0
20260831153617 54 170 1.0 1.0 0.00 0.00 0.00 49 1013.2
20260831153118 53 179 2.0 3.0 0.00 0.00 0.00 49 1013.1
20260831152618 53 148 2.0 1.0 0.00 0.00 0.00 50 1013.2
20260831152116 52 207 2.0 4.0 0.00 0.00 0.00 52 1013.0
20260831151617 52 256 2.0 1.0 0.00 0.00 0.00 53 1013.1
20260831151118 51 177 0.0 1.0 0.00 0.00 0.00 55 1013.1
20260831150619 50 155 2.0 0.0 0.00 0.00 0.00 56 1013.1
20260831150120 50 163 2.0 0.0 0.00 0.00 0.00 57 1013.0
20260831145618 49 155 1.0 0.0 0.00 0.00 0.00 58 1013.1
20260831145119 48 125 2.0 2.0 0.00 0.00 0.00 59 1013.0
20260831144620 48 194 1.0 3.0 0.00 0.00 0.00 60 1013.0
20260831144121 47 201 2.0 0.0 0.00 0.00 0.00 62 1012.8
20260831143621 46 190 2.0 2.0 0.00 0.00 0.00 63 1013.1
20260831143119 45 232 1.0 1.0 0.00 0.00 0.00 64 1012.8
20260831142620 45 219 2.0 2.0 0.00 0.00 0.00 65 1012.8
20260831142121 45 239 2.0 3.0 0.00 0.00 0.00 65 1012.7
20260831141622 44 212 3.0 1.0 0.00 0.00 0.00 65 1012.7
20260831141123 44 158 1.0 0.0 0.00 0.00 0.00 65 1012.6
20260831140621 44 205 2.0 1.0 0.00 0.00 0.00 65 1012.7
20260831140121 44 129 1.0 0.0 0.00 0.00 0.00 65 1012.6
20260831135622 44 219 1.0 2.0 0.00 0.00 0.00 65 1012.8
20260831135123 44 217 3.0 1.0 0.00 0.00 0.00 65 1012.7
20260831134624 44 205 0.0 0.0 0.00 0.00 0.00 65 1012.8
20260831134122 44 170 1.0 0.0 0.00 0.00 0.00 65 1012.7
20260831133622 44 205 1.0 1.0 0.00 0.00 0.00 66 1013.1
20260831133123 44 205 0.0 3.0 0.00 0.00 0.00 66 1012.7
20260831132624 43 148 1.0 0.0 0.00 0.00 0.00 67 1012.7
20260831132125 43 222 3.0 2.0 0.00 0.00 0.00 67 1012.8
20260831131623 43 211 2.0 2.0 0.00 0.00 0.00 68 1012.8
20260831131123 43 224 2.0 2.0 0.00 0.00 0.00 68 1013.0
20260831130624 42 150 0.0 0.0 0.00 0.00 0.00 69 1013.0
20260831130125 42 238 2.0 2.0 0.00 0.00 0.00 69 1013.0
20260831125626 42 207 2.0 1.0 0.00 0.00 0.00 69 1013.2
20260831125124 42 204 1.0 1.0 0.00 0.00 0.00 69 1013.1
20260831124625 43 226 1.0 3.0 0.00 0.00 0.00 68 1013.3
20260831124126 43 229 2.0 3.0 0.00 0.00 0.00 67 1013.2
20260831123626 43 211 2.0 2.0 0.00 0.00 0.00 67 1013.3
20260831123127 43 214 2.0 2.0 0.00 0.00 0.00 67 1013.3
20260831122625 43 225 3.0 4.0 0.00 0.00 0.00 67 1013.4
20260831122126 43 221 2.0 1.0 0.00 0.00 0.00 68 1013.4
20260831121627 43 187 2.0 1.0 0.00 0.00 0.00 68 1013.7
20260831121128 43 232 2.0 2.0 0.00 0.00 0.00 68 1013.4
20260831120629 43 212 1.0 2.0 0.00 0.00 0.00 68 1013.4
20260831120127 43 232 1.0 2.0 0.00 0.00 0.00 68 1013.4
20260831115628 43 211 1.0 1.0 0.00 0.00 0.00 68 1013.7
20260831115129 43 217 0.0 0.0 0.00 0.00 0.00 68 1013.4
20260831114630 43 186 0.0 2.0 0.00 0.00 0.00 69 1013.8
20260831114130 43 198 0.0 1.0 0.00 0.00 0.00 68 1013.5
20260831113628 43 205 0.0 0.0 0.00 0.00 0.00 68 1013.7
20260831113129 43 222 0.0 0.0 0.00 0.00 0.00 67 1013.5
20260831112630 43 242 2.0 3.0 0.00 0.00 0.00 67 1013.7
20260831112131 43 165 2.0 2.0 0.00 0.00 0.00 68 1013.5
20260831111632 42 215 1.0 1.0 0.00 0.00 0.00 69 1013.7
20260831111130 42 166 1.0 0.0 0.00 0.00 0.00 69 1013.7
20260831110631 42 236 2.0 4.0 0.00 0.00 0.00 69 1013.9
20260831110132 42 210 2.0 1.0 0.00 0.00 0.00 69 1013.8
20260831105633 42 176 0.0 0.0 0.00 0.00 0.00 69 1013.9
20260831105134 43 203 0.0 1.0 0.00 0.00 0.00 68 1013.8
20260831104632 43 153 0.0 0.0 0.00 0.00 0.00 68 1014.1
20260831104133 43 211 1.0 1.0 0.00 0.00 0.00 68 1013.8
20260831103634 43 173 1.0 1.0 0.00 0.00 0.00 68 1014.1
20260831103135 43 186 1.0 0.0 0.00 0.00 0.00 68 1013.9
20260831102636 43 163 1.0 0.0 0.00 0.00 0.00 68 1013.9
20260831102134 44 225 2.0 2.0 0.00 0.00 0.00 67 1013.9
20260831101635 44 194 0.0 2.0 0.00 0.00 0.00 67 1014.0
20260831100637 44 177 0.0 0.0 0.00 0.00 0.00 67 1014.4
20260831095636 44 165 1.0 0.0 0.00 0.00 0.00 67 1014.4
20260831095137 44 221 2.0 2.0 0.00 0.00 0.00 66 1014.1
20260831094638 44 163 2.0 0.0 0.00 0.00 0.00 66 1014.5
20260831094139 44 219 1.0 2.0 0.00 0.00 0.00 66 1014.3
20260831093640 44 187 2.0 2.0 0.00 0.00 0.00 67 1014.4
20260831093138 44 195 1.0 1.0 0.00 0.00 0.00 67 1014.5
20260831092639 44 211 2.0 2.0 0.00 0.00 0.00 67 1014.6
20260831092140 44 235 2.0 1.0 0.00 0.00 0.00 66 1014.5
20260831091641 44 233 3.0 1.0 0.00 0.00 0.00 66 1014.7
20260831091142 44 170 1.0 0.0 0.00 0.00 0.00 66 1014.6
20260831090640 44 225 0.0 0.0 0.00 0.00 0.00 66 1014.8
20260831090141 44 217 0.0 0.0 0.00 0.00 0.00 66 1014.7
20260831085643 44 217 0.0 0.0 0.00 0.00 0.00 65 1015.0
20260831085144 44 217 0.0 0.0 0.00 0.00 0.00 65 1014.8
20260831084644 44 221 0.0 0.0 0.00 0.00 0.00 65 1015.0
20260831084142 44 221 0.0 0.0 0.00 0.00 0.00 65 1015.1
20260831083643 44 221 0.0 0.0 0.00 0.00 0.00 65 1014.8
20260831083144 44 221 0.0 0.0 0.00 0.00 0.00 65 1014.8
20260831082146 44 221 0.0 0.0 0.00 0.00 0.00 65 1015.0
20260831081644 44 221 0.0 0.0 0.00 0.00 0.00 65 1015.0
20260831081146 44 221 0.0 0.0 0.00 0.00 0.00 65 1015.1
20260831080646 44 221 0.0 0.0 0.00 0.00 0.00 65 1015.2
20260831080148 44 221 1.0 0.0 0.00 0.00 0.00 65 1015.1
20260831075648 45 200 1.0 0.0 0.00 0.00 0.00 65 1015.4
20260831074648 45 198 0.0 0.0 0.00 0.00 0.00 65 1015.4
20260831074148 45 198 0.0 0.0 0.00 0.00 0.00 65 1015.3
20260831073649 45 217 0.0 0.0 0.00 0.00 0.00 65 1015.4
20260831072648 45 215 0.0 0.0 0.00 0.00 0.00 64 1015.4
20260831072149 45 215 0.0 0.0 0.00 0.00 0.00 64 1015.4
20260831071651 45 173 0.0 0.0 0.00 0.00 0.00 64 1015.6
20260831071151 45 173 0.0 0.0 0.00 0.00 0.00 64 1015.6
20260831070653 46 173 1.0 0.0 0.00 0.00 0.00 63 1015.7
20260831070151 46 195 0.0 0.0 0.00 0.00 0.00 63 1015.7
20260831065652 46 195 0.0 0.0 0.00 0.00 0.00 62 1015.7
20260831065153 46 195 0.0 0.0 0.00 0.00 0.00 62 1015.8
20260831064654 46 195 0.0 0.0 0.00 0.00 0.00 62 1015.9
20260831063653 47 188 0.0 0.0 0.00 0.00 0.00 61 1015.9
20260831063216 47 188 0.0 0.0 0.00 0.00 0.00 61 1015.9
20260831061656 48 128 1.0 1.0 0.00 0.00 0.00 59 1015.9
20260831060656 48 217 2.0 2.0 0.00 0.00 0.00 59 1016.0
20260831060157 49 198 0.0 0.0 0.00 0.00 0.00 58 1016.0
20260831055658 49 174 0.0 2.0 0.00 0.00 0.00 57 1016.1
20260831054158 51 155 0.0 0.0 0.00 0.00 0.00 54 1016.1
20260831053659 52 229 2.0 2.0 0.00 0.00 0.00 53 1016.3
20260831053200 52 217 2.0 3.0 0.00 0.00 0.00 52 1016.3
20260831052701 53 210 2.0 1.0 0.00 0.00 0.00 52 1016.4
20260831052159 53 176 0.0 1.0 0.00 0.00 0.00 52 1016.4
20260831051700 52 195 5.0 4.0 0.00 0.00 0.00 53 1016.5
20260831050702 50 153 4.0 1.0 0.00 0.00 0.00 56 1016.4
20260831050203 49 165 0.0 2.0 0.00 0.00 0.00 56 1016.5
20260831045701 49 193 2.0 0.0 0.00 0.00 0.00 56 1016.5
20260831044703 48 187 1.0 0.0 0.00 0.00 0.00 56 1016.5
20260831043705 48 191 2.0 2.0 0.00 0.00 0.00 55 1016.5
20260831043204 48 221 1.0 1.0 0.00 0.00 0.00 54 1016.6
20260831042705 48 210 1.0 3.0 0.00 0.00 0.00 54 1016.6
20260831041707 48 217 0.0 2.0 0.00 0.00 0.00 53 1016.6
20260831040706 49 170 0.0 0.0 0.00 0.00 0.00 52 1016.6
20260831040207 49 170 0.0 0.0 0.00 0.00 0.00 52 1016.6
20260831035708 49 210 0.0 0.0 0.00 0.00 0.00 52 1016.7
20260831035209 49 205 1.0 2.0 0.00 0.00 0.00 52 1016.7
20260831034710 49 89 0.0 0.0 0.00 0.00 0.00 52 1016.6
20260831034208 49 294 0.0 0.0 0.00 0.00 0.00 53 1016.6
20260831033713 50 294 0.0 0.0 0.00 0.00 0.00 53 1016.6
20260831033210 50 294 0.0 0.0 0.00 0.00 0.00 52 1016.6
20260831032212 52 294 0.0 0.0 0.00 0.00 0.00 51 1016.6
20260831031711 53 294 0.0 0.0 0.00 0.00 0.00 50 1016.7
20260831031212 53 294 0.0 0.0 0.00 0.00 0.00 49 1016.6
20260831030713 54 294 0.0 0.0 0.00 0.00 0.00 48 1016.6
20260831030214 55 294 0.0 0.0 0.00 0.00 0.00 47 1016.7
20260831025715 55 294 0.0 0.0 0.00 0.00 0.00 46 1016.6
20260831025213 56 294 0.0 0.0 0.00 0.00 0.00 44 1016.6
20260831024714 57 294 0.0 0.0 0.00 0.00 0.00 44 1016.5
20260831024215 57 294 0.0 0.0 0.00 0.00 0.00 43 1016.5
20260831023716 58 294 0.0 0.0 0.00 0.00 0.00 42 1016.6
20260831023217 58 294 0.0 0.0 0.00 0.00 0.00 41 1016.5
20260831022715 58 294 1.0 0.0 0.00 0.00 0.00 41 1016.6
20260831022216 59 280 1.0 0.0 0.00 0.00 0.00 40 1016.6
20260831021717 59 273 1.0 0.0 0.00 0.00 0.00 39 1016.6
20260831020720 60 300 1.0 1.0 0.00 0.00 0.00 37 1016.7
20260831020218 60 285 0.0 0.0 0.00 0.00 0.00 36 1016.7
20260831015719 60 305 1.0 3.0 0.00 0.00 0.00 36 1016.7
20260831015227 61 305 1.0 2.0 0.00 0.00 0.00 35 1016.7
20260831014721 61 305 3.0 3.0 0.00 0.00 0.00 34 1016.7
20260831014222 62 290 4.0 3.0 0.00 0.00 0.00 33 1016.7
20260831013721 62 302 1.0 4.0 0.00 0.00 0.00 32 1016.7
20260831013222 62 274 4.0 0.0 0.00 0.00 0.00 31 1016.9
20260831012723 62 326 3.0 3.0 0.00 0.00 0.00 31 1016.9
20260831012224 63 307 2.0 2.0 0.00 0.00 0.00 30 1016.9
20260831011223 63 295 2.0 2.0 0.00 0.00 0.00 28 1016.9
20260831010724 63 267 3.0 1.0 0.00 0.00 0.00 26 1016.9
20260831005227 64 302 1.0 1.0 0.00 0.00 0.00 25 1017.0
20260831004726 64 330 4.0 1.0 0.00 0.00 0.00 24 1017.0
20260831004227 64 304 3.0 1.0 0.00 0.00 0.00 23 1017.0
20260831003229 64 316 2.0 2.0 0.00 0.00 0.00 23 1017.0
20260831002730 65 319 3.0 4.0 0.00 0.00 0.00 23 1017.0
20260831002228 64 280 1.0 7.0 0.00 0.00 0.00 23 1017.0
20260831001729 64 287 1.0 0.0 0.00 0.00 0.00 23 1017.1
20260831001230 64 343 4.0 3.0 0.00 0.00 0.00 23 1017.1
20260831000731 65 319 3.0 4.0 0.00 0.00 0.00 22 1017.1
20260831000233 65 345 4.0 2.0 0.00 0.00 0.00 21 1017.1
20260830235730 65 311 2.0 4.0 0.00 0.00 0.00 21 1017.1
20260830235231 64 274 2.0 2.0 0.00 0.00 0.00 22 1017.2
20260830234733 64 307 2.0 1.0 0.00 0.00 0.00 22 1017.2
20260830234234 64 294 3.0 2.0 0.00 0.00 0.00 23 1017.3
20260830233735 64 319 2.0 5.0 0.00 0.00 0.00 23 1017.3
20260830232734 64 269 2.0 0.0 0.00 0.00 0.00 24 1017.3
20260830232235 65 316 3.0 3.0 0.00 0.00 0.00 22 1017.3
20260830231237 65 246 2.0 3.0 0.00 0.00 0.00 23 1017.5
20260830230736 65 201 3.0 1.0 0.00 0.00 0.00 22 1017.6
20260830230237 65 233 2.0 1.0 0.00 0.00 0.00 22 1017.6
20260830225738 65 312 2.0 4.0 0.00 0.00 0.00 21 1017.6
20260830225242 65 8 5.0 3.0 0.00 0.00 0.00 21 1017.6
20260830224740 65 316 3.0 4.0 0.00 0.00 0.00 20 1017.6
20260830224238 65 301 4.0 3.0 0.00 0.00 0.00 18 1017.6
20260830223241 65 307 6.0 5.0 0.00 0.00 0.00 20 1017.7
20260830222808 64 17 2.0 2.0 0.00 0.00 0.00 21 1017.7
20260830221741 65 336 4.0 5.0 0.00 0.00 0.00 20 1017.9
20260830221243 65 338 3.0 2.0 0.00 0.00 0.00 20 1017.9
20260830220744 65 285 1.0 2.0 0.00 0.00 0.00 21 1017.9
20260830215746 65 138 3.0 1.0 0.00 0.00 0.00 18 1018.2
20260830215244 65 307 3.0 3.0 0.00 0.00 0.00 18 1018.2
20260830214745 65 343 5.0 4.0 0.00 0.00 0.00 18 1018.2
20260830214246 65 314 5.0 6.0 0.00 0.00 0.00 19 1018.2
20260830213747 65 322 4.0 5.0 0.00 0.00 0.00 19 1018.3
20260830213248 64 309 1.0 5.0 0.00 0.00 0.00 17 1018.3
20260830212747 64 323 3.0 3.0 0.00 0.00 0.00 17 1018.3
20260830211749 64 3 3.0 2.0 0.00 0.00 0.00 19 1018.4
20260830211250 64 94 2.0 3.0 0.00 0.00 0.00 16 1018.4
20260830205751 64 256 2.0 3.0 0.00 0.00 0.00 20 1018.4
20260830205252 63 336 3.0 4.0 0.00 0.00 0.00 20 1018.4
20260830203803 64 316 0.0 4.0 0.00 0.00 0.00 20 1018.4
20260830203253 63 283 2.0 4.0 0.00 0.00 0.00 21 1018.4
20260830202755 63 314 2.0 7.0 0.00 0.00 0.00 21 1018.3
20260830202256 63 308 4.0 5.0 0.00 0.00 0.00 23 1018.3
20260830201255 63 210 4.0 1.0 0.00 0.00 0.00 22 1018.3
20260830200756 63 328 3.0 1.0 0.00 0.00 0.00 23 1018.3
20260830200257 62 281 3.0 2.0 0.00 0.00 0.00 24 1018.3
20260830195758 62 288 3.0 4.0 0.00 0.00 0.00 28 1018.3
20260830195259 62 314 5.0 5.0 0.00 0.00 0.00 29 1018.3
20260830194757 61 307 4.0 2.0 0.00 0.00 0.00 30 1018.4
20260830194258 61 215 1.0 1.0 0.00 0.00 0.00 32 1018.3
20260830193759 60 302 4.0 3.0 0.00 0.00 0.00 33 1018.3
20260830193300 60 293 1.0 1.0 0.00 0.00 0.00 33 1018.3
20260830192801 61 3 0.0 3.0 0.00 0.00 0.00 33 1018.2
20260830192259 61 308 3.0 5.0 0.00 0.00 0.00 35 1018.3
20260830191800 61 76 3.0 2.0 0.00 0.00 0.00 33 1018.3